Location: Lake of the Woods (North-East)
(49.6672°N, 94.8656°W)
Time: 22:20:08
(UTC-06:00)

ISS - All Passes

Search period start: 23 February 2018 00:00
Search period end: 05 March 2018 00:00
Orbit: 402 x 407 km, 51.6° (Epoch: 24 February)

Date Brightness Start Highest point End Pass type
(mag) Time Alt. Az. Time Alt. Az. Time Alt. Az.
23 Feb - 08:09:11 10° SSW 08:12:03 28° SE 08:14:56 10° E daylight
23 Feb - 09:45:04 10° WSW 09:48:20 81° NNW 09:51:38 10° ENE daylight
23 Feb - 11:21:45 10° WNW 11:25:00 60° N 11:28:15 10° E daylight
23 Feb - 12:58:17 10° WNW 13:01:32 62° SSW 13:04:46 10° ESE daylight
23 Feb - 14:35:42 10° WSW 14:37:31 14° SW 14:39:19 10° S daylight
24 Feb - 07:17:43 10° S 07:20:02 18° SE 07:22:22 10° E daylight
24 Feb - 08:52:52 10° WSW 08:56:08 76° SSE 08:59:24 10° ENE daylight
24 Feb - 10:29:29 10° W 10:32:43 58° N 10:35:59 10° E daylight
24 Feb - 12:06:04 10° WNW 12:09:22 87° SSW 12:12:38 10° ESE daylight
24 Feb - 13:42:54 10° W 13:45:32 22° SW 13:48:09 10° SSE daylight
25 Feb - 06:27:03 10° SSE 06:28:05 11° SE 06:29:07 10° ESE visible
25 Feb - 08:00:46 10° SW 08:03:58 51° SSE 08:07:10 10° ENE daylight
25 Feb - 09:37:11 10° W 09:40:27 63° N 09:43:42 10° ENE daylight
25 Feb - 11:13:50 10° WNW 11:17:07 73° NNE 11:20:23 10° E daylight
25 Feb - 12:50:27 10° W 12:53:28 35° SSW 12:56:29 10° SE daylight
26 Feb - 07:08:51 10° SSW 07:11:50 33° SSE 07:14:50 10° E daylight
26 Feb - 08:44:53 10° W 08:48:11 75° N 08:51:28 10° ENE daylight
26 Feb - 10:21:35 10° WNW 10:24:51 62° N 10:28:06 10° E daylight
26 Feb - 11:58:07 10° WNW 12:01:20 54° SSW 12:04:32 10° SE daylight
26 Feb - 13:35:59 10° WSW 13:37:14 12° SW 13:38:30 10° SSW daylight
27 Feb - 06:17:11 10° SSW 06:19:46 21° SE 06:22:20 10° E visible
27 Feb - 07:52:38 10° WSW 07:55:55 85° SSE 07:59:12 10° ENE daylight
27 Feb - 09:29:17 10° W 09:32:32 58° N 09:35:47 10° E daylight
27 Feb - 11:05:51 10° WNW 11:09:08 78° SSW 11:12:25 10° ESE daylight
27 Feb - 12:42:50 10° W 12:45:15 19° SW 12:47:39 10° S daylight
28 Feb - 05:26:03 10° SSE 05:27:44 13° SE 05:29:25 10° ESE visible
28 Feb - 07:00:28 10° SW 07:03:41 59° SSE 07:06:56 10° ENE daylight
28 Feb - 08:36:57 10° W 08:40:13 60° N 08:43:29 10° ENE daylight
28 Feb - 10:13:35 10° WNW 10:16:53 79° NNE 10:20:09 10° ESE daylight
28 Feb - 11:50:16 10° W 11:53:10 30° SSW 11:56:04 10° SSE daylight
01 Mar - 06:08:25 10° SW 06:11:30 39° SSE 06:14:36 10° E visible
01 Mar - 07:44:38 10° W 07:47:54 69° N 07:51:10 10° ENE daylight
01 Mar - 09:21:18 10° WNW 09:24:35 65° N 09:27:50 10° E daylight
01 Mar - 10:57:51 10° WNW 11:01:01 46° SSW 11:04:10 10° SE daylight
02 Mar - 05:16:37 10° SSW 05:19:22 25° SE 05:22:08 10° E visible
02 Mar - 06:52:18 10° WSW 06:55:36 87° N 06:58:53 10° ENE daylight
02 Mar - 08:28:59 10° WNW 08:32:14 59° N 08:35:29 10° E daylight
02 Mar - 10:05:32 10° WNW 10:08:48 69° SSW 10:12:03 10° ESE daylight
02 Mar - 11:42:43 10° W 11:44:50 16° SW 11:46:57 10° S daylight
03 Mar - 04:25:12 10° S 04:27:17 16° SE 04:29:23 10° E visible
03 Mar - 06:00:03 10° WSW 06:03:19 68° SSE 06:06:35 10° ENE visible
03 Mar - 07:36:37 10° W 07:39:52 59° N 07:43:08 10° ENE daylight
03 Mar - 09:13:13 10° WNW 09:16:31 86° NNE 09:19:48 10° ESE daylight
03 Mar - 10:49:58 10° W 10:52:45 25° SW 10:55:30 10° SSE daylight
04 Mar - 05:07:55 10° SW 05:11:04 45° SSE 05:14:14 10° ENE visible
04 Mar - 06:44:14 10° W 06:47:31 65° N 06:50:47 10° ENE daylight
04 Mar - 08:20:54 10° WNW 08:24:11 69° N 08:27:28 10° E daylight
04 Mar - 09:57:28 10° W 10:00:35 39° SSW 10:03:39 10° SE daylight
